OPS 7613 (P/L 3)

Satellite information

Favourite Embed

Satellite Type and Status

PAYLOADIN ORBIT

Key statistics

Satellite OPS 7613 (P/L 3) at a glance.

Uptime

20528

Days in orbit

Revolutions

≈ 14.0

Per day

Orbit

LEO

Low Earth Orbit

Inclination

70.0

Latest

Satellite identification and parameters

Extended collection of information and parameters for OPS 7613 (P/L 3).

Object identification

Identified? True

Debris? False

Object name: OPS 7613 (P/L 3)

International designator: 1969-082D

Object number (NORAD): 4259

Object ID (CCSDS): 4259

Country: UNITED STATES OF AMERICA (US)

Current information (Y/N): Y

RCS size: MEDIUM

Orbital parameters

Period: 103.219 minutes

Inclination: 70.0133 deg

SMA: 7288.963 km

Apoapsis: 924.897 km

Periapsis: 896.759 km

RAAN: 174.2312 deg

Eccentricy: 0.00193021

Argument of periapsis: 25.0895 deg

Mean anomaly: 148.0597 deg

Mean motion: 13.95096163 rev/day

Mean motion (dot): 0.00000046 rev/day2

B* drag term: 0.000073309889 1/REarth

Two-line elements (TLE)

Creation date: Dec. 12, 2025, 10:14 a.m.

Reference frame: TEME

Reference center: EARTH

Epoch: Dec. 12, 2025, 7:24 a.m. UTC

TLE line 0: 0 OPS 7613 (P/L 3)

TLE line 1: 1 04259U 69082D 25346.30863611 .00000046 00000-0 73310-4 0 9991

TLE line 2: 2 04259 70.0133 174.2312 0019302 25.0895 148.0597 13.95096163955613

Live tracking on map

Real-time ground track for satellite OPS 7613 (P/L 3).

In-orbit conjunctions

There are no conjunctions computed for OPS 7613 (P/L 3), at the moment. Check back to stay up to date, as we update our databases every day.

Go to all conjunctions

Associated space launch

Poppy was the follow-on ELINT system, which succeeded the Grab ELINT satellite system.

OPS 7613 (P/L 3) was lifted into orbit during the mission ‘Thorad SLV-2G Agena D | Poppy 8A,B,C,D’, on board a Thorad SLV-2G Agena D space rocket.

The launch took place on Sept. 30, 1969, 1:40 p.m. from Space Launch Complex 1W.

For more information about the launch, click the button.

Launch to space Thorad SLV-2G Agena D | Poppy 8A,B,C,D
Thorad SLV-2G Agena D | Poppy 8A,B,C,D

Agency: N/A

Status: Launch Successful

Launch date: Sept. 30, 1969, 1:40 p.m. UTC

Rocket: Thorad SLV-2G Agena D

Launch pad: Space Launch Complex 1W

Location: Vandenberg SFB, CA, USA

...

Latest news about this satellite

There are no fresh news available about this satellite. Check back as we update our databases every day.


Newsletter sign-up

Weekly statistics, charts and insights to help you stay on top of the space industry.